[[{"header":{"parameterUnit":"m.s-1","parameterCategory":1,"la1":30.2991,"la2":30.254,"lo1":-89.0895,"lo2":-89.0444,"dy":0.0017,"dx":0.0017,"nx":28,"ny":28,"refTime":"2024-11-30T09:00:00:Z","depth":0,"parameterNumber":2,"parameterNumberName":"U-component_of_WINDS"},"data":[0,0,0,0,0,0,0,0,0,0,0,0,0,0,0,0,0,0,0,0,0,0,0,0,0,0,0,0,0,0,0,0,0,0,0,0,0,0,0,0,0,0,0,0,0,0,0,0,0,0,0,0,0,0,0,0,0,0,-2.2845,-2.2846,0,-2.2908,-2.2908,-2.2909,-2.281,-2.2807,-2.2803,-2.28,-2.2866,-2.2871,-2.2875,0,0,0,0,0,0,0,0,0,0,0,0,0,-2.264,-2.2644,-2.2845,-2.2846,-2.2847,-2.2908,-2.2908,-2.2909,-2.2811,-2.2807,-2.2803,-2.2799,-2.2864,-2.287,-2.2876,0,0,0,0,0,0,0,0,0,0,0,0,0,-2.2719,-2.2646,-2.2845,-2.2805,-2.2802,-2.2907,-2.2908,-2.291,-2.2812,-2.2807,-2.2801,-2.2797,-2.2862,-2.2869,-2.2877,-2.3025,0,0,-2.2899,-2.2902,0,0,0,0,0,0,0,0,-2.2714,-2.2726,-2.281,-2.2808,-2.2805,-2.2846,-2.286,-2.2948,-2.2813,-2.2808,-2.28,-2.2794,-2.2863,-2.287,-2.2893,-2.3028,-2.3031,-2.29,-2.2904,-2.2908,-2.291,0,0,0,0,0,0,0,-2.2709,-2.2723,-2.287,-2.2811,-2.2808,-2.2784,-2.2789,-2.2876,-2.2864,-2.2808,-2.2801,-2.281,-2.2861,-2.2887,-2.2894,-2.3032,-2.29,-2.2906,-2.2911,-2.2914,-2.3289,-2.3294,0,0,0,0,0,0,-2.2708,-2.2719,-2.2868,-2.2872,-2.2746,-2.2791,-2.2798,-2.2838,-2.2862,-2.2861,-2.2814,-2.2805,-2.2876,-2.2886,-2.2896,-2.307,-2.2908,-2.2914,-2.2919,-2.3283,-2.329,-2.3296,0,0,0,0,0,0,-2.2704,-2.2723,-2.2865,-2.2794,-2.281,-2.28,-2.2846,-2.2842,-2.2867,-2.2867,-2.2864,-2.2843,-2.2873,-2.2886,-2.2993,-2.3071,-2.2918,-2.2925,-2.3277,-2.3285,-2.3293,-2.342,0,0,0,0,0,0,-2.2699,-2.2722,-2.2778,-2.2796,-2.2814,-2.2962,-2.2851,-2.2847,-2.288,-2.2869,-2.2893,-2.2892,-2.287,-2.2982,-2.3,-2.3078,-2.293,-2.327,-2.328,-2.329,-2.3408,-2.3431,-2.3451,0,0,0,0,0,-2.2692,-2.2812,-2.2782,-2.28,-2.2884,-2.2966,-2.2977,-2.2948,-2.2887,-2.2943,-2.2943,-2.2891,-2.3059,-2.2994,-2.3014,-2.3095,-2.3264,-2.3277,-2.3289,-2.3399,-2.3427,-2.345,0,0,0,0,0,0,-2.2806,-2.2814,-2.278,-2.291,-2.2938,-2.295,-2.302,-2.2979,-2.3026,-2.3014,-2.2976,-2.2983,-2.3097,-2.3107,-2.3034,-2.3238,-2.3151,-2.3168,-2.3228,-2.3255,-2.3275,-2.3271,-2.2936,0,0,0,0,0,-2.2845,-2.2911,-2.2915,-2.3029,-2.3045,-2.303,-2.3065,-2.304,-2.3068,-2.308,-2.3087,-2.3117,-2.3175,-2.3216,-2.327,-2.3409,-2.3412,-2.3474,-2.3495,-2.3513,-2.3528,-2.36,-2.3627,-2.3336,-2.3336,-2.3336,0,0,-2.2929,-2.2942,-2.2986,-2.3052,-2.3071,-2.3139,-2.3041,-2.3118,-2.3169,-2.3092,-2.3193,-2.3199,-2.323,-2.3353,-2.3408,-2.3364,-2.3608,-2.3528,-2.3542,-2.3548,-2.3615,-2.3643,-2.3667,-2.3345,-2.3343,-2.3342,0,0,-2.3116,-2.3133,-2.3228,-2.3249,-2.3279,-2.3268,-2.3291,-2.3309,-2.331,-2.341,-2.3353,-2.3413,-2.3516,-2.3539,-2.3565,-2.3758,-2.3712,-2.3777,-2.3887,-2.3958,-2.3981,-2.4001,-2.4069,-2.4094,-2.3792,-2.3792,-2.3792,0,-2.3216,-2.3317,-2.3283,-2.3364,-2.3394,-2.3326,-2.3423,-2.3444,-2.3491,-2.3513,-2.3464,-2.359,-2.3606,-2.3733,-2.378,-2.3803,-2.3827,-2.3774,-2.3981,-2.4,-2.4019,-2.4083,-2.4109,-2.38,-2.3799,-2.3798,-2.3797,0,-2.3438,-2.3509,-2.3583,-2.3628,-2.3667,-2.3755,-2.3734,-2.3777,-2.3748,-2.3743,-2.3845,-2.3861,-2.3917,-2.3945,-2.3919,-2.4068,-2.404,-2.3987,-2.3898,-2.4054,-2.4114,-2.4139,-2.3811,-2.3808,-2.3806,-2.3804,0,0,-2.37,-2.3724,-2.3751,-2.377,-2.3797,-2.3851,-2.3935,-2.3989,-2.4026,-2.406,-2.4129,-2.4217,-2.4167,-2.4196,-2.4171,-2.4233,-2.4384,-2.4171,-2.4171,-2.4209,-2.4547,-2.4587,-2.4617,-2.4353,-2.4358,-2.4361,-2.4544,0,-2.3886,-2.4031,-2.4002,-2.4144,-2.4208,-2.4144,-2.4217,-2.4241,-2.4238,-2.4291,-2.4287,-2.435,-2.4279,-2.4296,-2.4355,-2.4353,-2.4451,-2.4339,-2.4417,-2.442,-2.4411,-2.4648,-2.4691,-2.4863,-2.4568,-2.4572,-2.4575,0,-2.4122,-2.4163,-2.4312,-2.4326,-2.4352,-2.4419,-2.4464,-2.4516,-2.4542,-2.4535,-2.4566,-2.4529,-2.4612,-2.4523,-2.4636,-2.4561,-2.459,-2.4594,-2.46,-2.4606,-2.4507,-2.466,-2.4917,-2.4943,-2.4611,-2.4608,-2.4606,0,-2.4297,-2.439,-2.449,-2.4508,-2.4528,-2.4576,-2.4586,-2.4606,-2.464,-2.468,-2.4701,-2.475,-2.4778,-2.4816,-2.4793,-2.473,-2.491,-2.4819,-2.4906,-2.4907,-2.4947,-2.4944,-2.5212,-2.4967,-2.4967,-2.4966,-2.4966,0,-2.4507,-2.46,-2.4568,-2.463,-2.4732,-2.4697,-2.4799,-2.4801,-2.482,-2.488,-2.4828,-2.4886,-2.4852,-2.4907,-2.4889,-2.4985,-2.4998,-2.4994,-2.4988,-2.4998,-2.4999,-2.5017,-2.5004,-2.4973,-2.4972,-2.497,-2.4969,0,-2.472,-2.4702,-2.4807,-2.4816,-2.4821,-2.4895,-2.4903,-2.496,-2.4952,-2.5029,-2.5045,-2.5033,-2.5094,-2.5075,-2.5142,-2.513,-2.5251,-2.523,-2.5242,-2.5237,-2.5324,-2.5316,-2.5613,-2.5649,-2.5381,-2.5384,-2.5386,0,-2.4855,-2.4924,-2.4941,-2.4977,-2.4991,-2.5051,-2.5084,-2.5052,-2.5089,-2.5122,-2.5175,-2.5232,-2.5275,-2.5377,-2.5374,-2.5424,-2.5404,-2.5504,-2.5411,-2.5418,-2.5404,-2.54,-2.5406,-2.5523,-2.5526,-2.5528,-2.553,0,-2.5096,-2.5083,-2.5133,-2.518,-2.522,-2.5256,-2.5286,-2.5319,-2.5289,-2.5333,-2.5395,-2.5429,-2.5496,-2.5553,-2.5598,-2.5608,-2.5565,-2.556,-2.5582,-2.5593,-2.5597,-2.5595,-2.5292,-2.5553,-2.5551,-2.5549,-2.5548,-2.5547,-2.5273,-2.5331,-2.5351,-2.5408,-2.5427,-2.5456,-2.551,-2.5507,-2.5559,-2.561,-2.5588,-2.566,-2.5681,-2.5737,-2.5753,-2.5808,-2.5769,-2.5802,-2.581,-2.5819,-2.5829,-2.5589,-2.5816,-2.5816,-2.5815,-2.5814,-2.5814,0,-2.551,-2.5519,-2.5572,-2.5615,-2.566,-2.5614,-2.5645,-2.5685,-2.5748,-2.5772,-2.5815,-2.5886,-2.594,-2.594,-2.599,-2.6034,-2.6015,-2.6048,-2.6044,-2.6047,-2.5862,-2.5837,-2.6063,-2.6063,-2.6063,-2.6062,-2.6062,-2.6062,-2.5639,-2.5735,-2.5724,-2.5828,-2.5836,-2.5905,-2.5927,-2.5953,-2.5971,-2.6052,-2.6097,-2.6096,-2.611,-2.616,-2.6207,-2.6206,-2.6226,-2.6267,-2.6258,-2.6085,-2.606,-2.6037,-2.6013,-2.6272,-2.6272,-2.6438,-2.644,-2.6441]},{"header":{"parameterUnit":"m.s-1","parameterCategory":1,"la1":30.2991,"la2":30.254,"lo1":-89.0895,"lo2":-89.0444,"dy":0.0017,"dx":0.0017,"nx":28,"ny":28,"refTime":"2024-11-30T09:00:00:Z","depth":0,"parameterNumber":3,"parameterNumberName":"V-component_of_WINDS"},"data":[0,0,0,0,0,0,0,0,0,0,0,0,0,0,0,0,0,0,0,0,0,0,0,0,0,0,0,0,0,0,0,0,0,0,0,0,0,0,0,0,0,0,0,0,0,0,0,0,0,0,0,0,0,0,0,0,0,0,-3.5085,-3.5086,0,-3.5151,-3.5152,-3.5153,-3.5098,-3.5096,-3.5093,-3.5091,-3.5156,-3.516,-3.5164,0,0,0,0,0,0,0,0,0,0,0,0,0,-3.4908,-3.4911,-3.5085,-3.5086,-3.5087,-3.5151,-3.5152,-3.5153,-3.5098,-3.5096,-3.5093,-3.509,-3.5155,-3.516,-3.5164,0,0,0,0,0,0,0,0,0,0,0,0,0,-3.4981,-3.4913,-3.5085,-3.5067,-3.5067,-3.5151,-3.5152,-3.5153,-3.5099,-3.5096,-3.5092,-3.5089,-3.5153,-3.5159,-3.5165,-3.5269,0,0,-3.5182,-3.5185,0,0,0,0,0,0,0,0,-3.4976,-3.4987,-3.5069,-3.5069,-3.5068,-3.5113,-3.5113,-3.5192,-3.51,-3.5087,-3.5091,-3.5087,-3.5144,-3.5151,-3.5171,-3.5272,-3.5275,-3.5183,-3.5187,-3.5189,-3.5191,0,0,0,0,0,0,0,-3.4972,-3.4984,-3.5111,-3.507,-3.507,-3.5055,-3.5061,-3.5128,-3.5134,-3.5087,-3.5084,-3.5092,-3.5143,-3.5165,-3.5172,-3.5276,-3.5183,-3.5188,-3.5192,-3.5194,-3.5464,-3.5468,0,0,0,0,0,0,-3.4969,-3.498,-3.5109,-3.5113,-3.5013,-3.5061,-3.5068,-3.5102,-3.5133,-3.5135,-3.5095,-3.509,-3.5157,-3.5165,-3.5174,-3.5297,-3.5189,-3.5194,-3.5198,-3.5461,-3.5465,-3.5469,0,0,0,0,0,0,-3.4965,-3.4981,-3.5106,-3.5046,-3.5061,-3.5068,-3.5106,-3.5105,-3.5127,-3.5139,-3.5139,-3.5117,-3.5155,-3.5166,-3.5246,-3.5298,-3.5197,-3.5202,-3.5456,-3.5462,-3.5467,-3.5545,0,0,0,0,0,0,-3.496,-3.498,-3.5021,-3.5047,-3.5064,-3.5179,-3.5109,-3.5109,-3.5137,-3.513,-3.5159,-3.5161,-3.5153,-3.5237,-3.5251,-3.5304,-3.5207,-3.5452,-3.5459,-3.5466,-3.5537,-3.5552,-3.5565,0,0,0,0,0,-3.4954,-3.504,-3.5023,-3.5039,-3.5115,-3.5182,-3.5191,-3.5181,-3.5142,-3.5182,-3.5189,-3.516,-3.529,-3.5246,-3.5261,-3.5317,-3.5448,-3.5457,-3.5465,-3.5531,-3.5549,-3.5565,0,0,0,0,0,0,-3.5019,-3.5043,-3.5025,-3.5121,-3.515,-3.5173,-3.5223,-3.5201,-3.5241,-3.5233,-3.5218,-3.5225,-3.5309,-3.5321,-3.5271,-3.5419,-3.5363,-3.5375,-3.5408,-3.5425,-3.5439,-3.5434,-3.5212,0,0,0,0,0,-3.5044,-3.5097,-3.5115,-3.5199,-3.5214,-3.5216,-3.5245,-3.5235,-3.5263,-3.5275,-3.5288,-3.5316,-3.5363,-3.5395,-3.5439,-3.5539,-3.5543,-3.5584,-3.5598,-3.5609,-3.562,-3.5671,-3.5689,-3.5497,-3.5497,-3.5497,0,0,-3.5098,-3.5117,-3.5152,-3.5212,-3.5233,-3.5287,-3.5227,-3.5287,-3.5326,-3.5284,-3.536,-3.5371,-3.5401,-3.5491,-3.5531,-3.5503,-3.5674,-3.562,-3.5629,-3.5633,-3.5682,-3.57,-3.5716,-3.5502,-3.5501,-3.55,0,0,-3.5222,-3.5243,-3.5314,-3.5336,-3.5369,-3.537,-3.5387,-3.5412,-3.5418,-3.5495,-3.5463,-3.5509,-3.5591,-3.5614,-3.5636,-3.5767,-3.5741,-3.5782,-3.5853,-3.5904,-3.5919,-3.5933,-3.5978,-3.5995,-3.5792,-3.5792,-3.5792,0,-3.5284,-3.5365,-3.5353,-3.5415,-3.5442,-3.5407,-3.5478,-3.5499,-3.5545,-3.5563,-3.5532,-3.5633,-3.5651,-3.5745,-3.5777,-3.5796,-3.5814,-3.5778,-3.5918,-3.5931,-3.5944,-3.5987,-3.6004,-3.5797,-3.5796,-3.5796,-3.5796,0,-3.5438,-3.5495,-3.5548,-3.5593,-3.5626,-3.5693,-3.569,-3.5724,-3.571,-3.5714,-3.5791,-3.5811,-3.5858,-3.588,-3.5867,-3.5972,-3.5953,-3.592,-3.5864,-3.5967,-3.6007,-3.6024,-3.5804,-3.5802,-3.5801,-3.58,0,0,-3.5606,-3.5643,-3.5663,-3.5682,-3.5715,-3.5758,-3.5821,-3.5868,-3.5897,-3.5929,-3.5981,-3.6051,-3.602,-3.6045,-3.6034,-3.6079,-3.618,-3.604,-3.6041,-3.6065,-3.6294,-3.6318,-3.6338,-3.6163,-3.6166,-3.6168,-3.6291,0,-3.5731,-3.5843,-3.5834,-3.5939,-3.599,-3.5957,-3.6012,-3.6037,-3.6042,-3.6085,-3.6089,-3.6139,-3.6095,-3.611,-3.6153,-3.6159,-3.6226,-3.615,-3.621,-3.6212,-3.6203,-3.6359,-3.6385,-3.6501,-3.6307,-3.631,-3.6312,0,-3.5892,-3.593,-3.6041,-3.6064,-3.6085,-3.6136,-3.6176,-3.6219,-3.6246,-3.6246,-3.6273,-3.6255,-3.6317,-3.626,-3.6345,-3.6293,-3.6317,-3.6323,-3.6328,-3.6332,-3.6268,-3.6367,-3.6537,-3.6554,-3.6337,-3.6335,-3.6333,0,-3.6002,-3.608,-3.6156,-3.6174,-3.6204,-3.6239,-3.6253,-3.6277,-3.6305,-3.6341,-3.6358,-3.64,-3.6423,-3.6456,-3.6448,-3.6407,-3.6535,-3.6477,-3.6535,-3.6535,-3.6563,-3.6561,-3.6739,-3.658,-3.658,-3.6579,-3.6579,0,-3.6142,-3.6211,-3.6206,-3.6253,-3.6328,-3.6316,-3.639,-3.64,-3.6421,-3.6468,-3.6441,-3.6485,-3.6473,-3.6516,-3.6511,-3.6581,-3.6592,-3.6592,-3.659,-3.6595,-3.6594,-3.661,-3.6601,-3.6584,-3.6583,-3.6582,-3.6581,0,-3.6277,-3.6277,-3.6357,-3.6379,-3.6386,-3.644,-3.6458,-3.6501,-3.6503,-3.6562,-3.6576,-3.6579,-3.6628,-3.6624,-3.6679,-3.6675,-3.6762,-3.6751,-3.6753,-3.6751,-3.6809,-3.6803,-3.7001,-3.7026,-3.6852,-3.6854,-3.6855,0,-3.6366,-3.6418,-3.6445,-3.6475,-3.6491,-3.654,-3.6568,-3.6558,-3.6588,-3.6622,-3.6661,-3.6708,-3.6745,-3.6825,-3.6831,-3.6873,-3.6862,-3.6928,-3.6868,-3.687,-3.6862,-3.6858,-3.6863,-3.694,-3.6942,-3.6944,-3.6945,0,-3.6524,-3.6521,-3.6564,-3.6606,-3.6641,-3.6673,-3.6703,-3.6729,-3.6721,-3.6756,-3.6806,-3.6835,-3.6892,-3.6938,-3.6978,-3.699,-3.6966,-3.6964,-3.698,-3.6984,-3.6983,-3.6984,-3.6785,-3.6959,-3.6958,-3.6957,-3.6956,-3.6956,-3.6638,-3.6683,-3.6708,-3.6756,-3.6777,-3.6805,-3.6846,-3.6854,-3.6896,-3.6941,-3.6932,-3.6988,-3.7012,-3.7063,-3.708,-3.7122,-3.7098,-3.7121,-3.7127,-3.7132,-3.7138,-3.6977,-3.713,-3.7129,-3.7129,-3.7128,-3.7128,0,-3.6794,-3.6808,-3.6853,-3.6895,-3.6932,-3.6907,-3.6938,-3.697,-3.702,-3.7045,-3.7082,-3.7139,-3.7184,-3.7194,-3.7236,-3.7268,-3.7258,-3.7279,-3.7276,-3.7279,-3.7158,-3.714,-3.7287,-3.7287,-3.7287,-3.7287,-3.7287,-3.7287,-3.6879,-3.6952,-3.6952,-3.7034,-3.7048,-3.7104,-3.7123,-3.7148,-3.7168,-3.7233,-3.727,-3.7276,-3.7295,-3.7338,-3.7377,-3.7378,-3.7395,-3.742,-3.7418,-3.7304,-3.7288,-3.7273,-3.7256,-3.7424,-3.7425,-3.7535,-3.7536,-3.7537]}]]